Flag for Micronesia Weather past 2 weeks in Weno, Truk, Micronesia

Now
85 °F

Mostly cloudy.


Feels Like: 97 °F
Forecast: 81 / 85 °F
Wind: 12 mph from Northeast

Location: Truk Intl / Moen Island


UV Index: 10 (Very high)

Visibility: 15 mi


Pressure: 29.78 "Hg

Humidity: 81%

Dew point: 78 °F

Location of WenoLocation

Historic Weather in Weno

°F

Weno temperature yesterday

Maximum temperature yesterday: 88 °F (at 1:55 PM)
Minimum temperature yesterday: 77 °F (at 5:51 AM)
Average temperature yesterday: 80 °F

Past Weeks' High & Low Weather Summary

 TemperatureHumidityPressure
High89 °F (Apr 15, 12:56 PM)100% (Apr 14, 8:50 PM)29.89 "Hg (Apr 14, 8:50 PM)
Low76 °F (Apr 17, 8:50 PM)64% (Apr 23, 1:55 PM)29.62 "Hg (Apr 12, 12:50 AM)
Average82 °F88%29.79 "Hg
* Reported Apr 9 9:50 AM — Apr 24 9:50 AM, Weno, Weather by CustomWeather, © 2014

Note: Actual official high and low records may vary slightly from our data, if they occured in-between our weather recording intervals... More about our weather records

Advertising

Historic Weather Conditions — Data for Previous 24 hours

 ConditionsComfort  
Time TempWeatherWind HumidityBarometerVisibility
9:50 AM
Apr 24
85 °FMostly cloudy.12 mph81%29.78 "Hg15 mi
8:53 AM83 °FMostly cloudy.12 mph78%29.78 "Hg15 mi
7:54 AM83 °FMostly cloudy.7 mph81%29.78 "Hg15 mi
6:55 AM81 °FMostly cloudy.5 mph88%29.76 "Hg15 mi
5:51 AM81 °FMostly cloudy.5 mph84%29.75 "Hg15 mi
4:50 AM81 °FMostly cloudy.5 mph89%29.74 "Hg15 mi
3:51 AM81 °FMostly cloudy.3 mph88%29.73 "Hg15 mi
2:52 AM82 °FOvercast.6 mph89%29.73 "Hg15 mi
1:50 AM80 °FMostly cloudy.6 mph88%29.73 "Hg15 mi
12:52 AM80 °FMostly cloudy.12 mph94%29.74 "Hg12 mi
11:53 PM
Apr 23
81 °FMostly cloudy.12 mph89%29.78 "Hg12 mi
10:50 PM80 °FSprinkles. Mostly cloudy.12 mph92%29.80 "Hg10 mi
9:54 PM80 °FMostly cloudy.10 mph86%29.82 "Hg12 mi
8:51 PM80 °FMostly cloudy.14 mph89%29.79 "Hg12 mi
7:51 PM79 °FLight rain. Mostly cloudy.14 mph94%29.79 "Hg12 mi
6:52 PM80 °FLight rain. Mostly cloudy.13 mph92%29.79 "Hg12 mi
5:52 PM80 °FLight rain. More clouds than sun.14 mph92%29.76 "Hg14 mi
4:51 PM80 °FLight rain. More clouds than sun.10 mph91%29.74 "Hg14 mi
3:51 PM81 °FLight rain. More clouds than sun.14 mph92%29.75 "Hg15 mi
2:54 PM78 °FSprinkles. More clouds than sun.10 mph98%29.75 "Hg15 mi
1:55 PM88 °FSprinkles. More clouds than sun.9 mph64%29.73 "Hg15 mi
Weather by CustomWeather, © 2014

See weather overview